EW9732 Weather Reports


time (UTC)temp
F
wind
direction
speed
knots
gust
knots
rain 1hr
in
rain 24hr
in
rain mn
in
humidity
%
barometer
mb
20220629041539 75 193 0.0 1.7 0.00 0.00 0.00 27 1010.1
20220629040039 77 148 0.0 0.0 0.00 0.00 0.00 27 1009.9
20220629034540 77 140 0.0 1.7 0.00 0.00 0.00 27 1009.8
20220629033043 78 171 0.0 2.6 0.00 0.00 0.00 26 1009.7
20220629031538 79 171 0.0 3.5 0.00 0.00 0.00 25 1009.7
20220629030038 80 236 0.0 3.5 0.00 0.00 0.00 24 1009.5
20220629024537 81 196 0.9 7.8 0.00 0.00 0.00 23 1009.2
20220629023137 82 212 3.5 7.8 0.00 0.00 0.00 22 1009.0
20220629021535 83 236 1.7 10.4 0.00 0.00 0.00 21 1009.0
20220629020034 85 195 0.9 4.3 0.00 0.00 0.00 20 1008.8
20220629014534 86 206 1.7 5.2 0.00 0.00 0.00 18 1008.5
20220629013032 87 309 0.9 4.3 0.00 0.00 0.00 16 1008.5
20220629011532 88 39 0.0 0.0 0.00 0.00 0.00 17 1008.6
20220629010030 89 39 0.0 0.0 0.00 0.00 0.00 15 1008.6
20220629004530 91 72 0.0 0.0 0.00 0.00 0.00 14 1008.7
20220629003030 91 37 0.0 0.0 0.00 0.00 0.00 14 1008.8
20220629001529 90 91 0.0 0.9 0.00 0.00 0.00 16 1008.8
20220629000028 91 93 0.0 2.6 0.00 0.00 0.00 14 1008.9
20220628234527 91 289 0.0 3.5 0.00 0.00 0.00 14 1008.9
20220628233025 92 85 0.0 3.5 0.00 0.00 0.00 14 1009.2
20220628231524 91 77 0.0 2.6 0.00 0.00 0.00 14 1009.2
20220628230022 93 96 0.9 2.6 0.00 0.00 0.00 13 1009.5
20220628224521 93 129 0.0 2.6 0.00 0.00 0.00 13 1009.6
20220628223019 93 178 0.0 4.3 0.00 0.00 0.00 12 1009.8
20220628221517 92 179 2.6 7.0 0.00 0.00 0.00 11 1009.9
20220628220023 92 121 0.0 2.6 0.00 0.00 0.00 13 1010.2
20220628214517 93 135 0.9 5.2 0.00 0.00 0.00 12 1010.3
20220628213115 92 209 0.0 5.2 0.00 0.00 0.00 13 1010.5
20220628211515 92 210 2.6 7.8 0.00 0.00 0.00 13 1010.6
20220628210013 92 147 2.6 7.8 0.00 0.00 0.00 13 1010.8
20220628204505 91 116 1.7 7.0 0.00 0.00 0.00 14 1010.8
20220628203004 91 246 1.7 5.2 0.00 0.00 0.00 12 1011.1
20220628201502 91 103 0.9 6.1 0.00 0.00 0.00 13 1011.3
20220628200001 91 249 0.9 4.3 0.00 0.00 0.00 13 1011.4
20220628194600 91 117 0.0 7.0 0.00 0.00 0.00 15 1011.6
20220628193058 92 293 0.9 5.2 0.00 0.00 0.00 14 1011.8
20220628191555 91 53 0.0 6.1 0.00 0.00 0.00 12 1012.0
20220628190100 91 34 0.9 7.0 0.00 0.00 0.00 13 1012.2
20220628184554 91 96 1.7 5.2 0.00 0.00 0.00 12 1012.5
20220628183051 91 133 0.9 3.5 0.00 0.00 0.00 11 1012.6
20220628181547 90 87 1.7 4.3 0.00 0.00 0.00 12 1012.6
20220628180047 89 70 1.7 6.1 0.00 0.00 0.00 15 1012.7
20220628174543 88 150 0.0 6.1 0.00 0.00 0.00 14 1012.9
20220628173040 88 127 0.9 5.2 0.00 0.00 0.00 19 1012.9
20220628171543 87 167 0.9 3.5 0.00 0.00 0.00 19 1013.1
20220628170034 86 68 0.0 3.5 0.00 0.00 0.00 20 1013.3
20220628164530 84 110 0.9 4.3 0.00 0.00 0.00 23 1013.3
20220628163033 84 79 0.0 2.6 0.00 0.00 0.00 24 1013.4
20220628161532 83 351 0.0 2.6 0.00 0.00 0.00 26 1013.5
20220628160021 82 101 0.0 2.6 0.00 0.00 0.00 26 1013.7
20220628154521 81 96 0.9 3.5 0.00 0.00 0.00 28 1013.8
20220628153014 80 131 1.7 4.3 0.00 0.00 0.00 29 1014.2
20220628151508 78 134 0.9 4.3 0.00 0.00 0.00 32 1014.4
20220628150004 76 240 1.7 4.3 0.00 0.00 0.00 34 1014.5
20220628144600 75 170 2.6 7.0 0.00 0.00 0.00 35 1014.7
20220628143057 73 227 1.7 4.3 0.00 0.00 0.00 37 1014.9
20220628141552 72 210 0.9 4.3 0.00 0.00 0.00 41 1015.2
20220628140047 70 161 0.0 5.2 0.00 0.00 0.00 44 1015.2
20220628134550 68 222 0.0 3.5 0.00 0.00 0.00 47 1015.2
20220628133039 66 224 0.0 5.2 0.00 0.00 0.00 49 1015.1
20220628131536 63 202 0.0 3.5 0.00 0.00 0.00 53 1015.2
20220628130037 61 219 0.0 2.6 0.00 0.00 0.00 57 1015.2
20220628124532 59 134 0.0 2.6 0.00 0.00 0.00 60 1015.1
20220628123033 58 209 0.9 2.6 0.00 0.00 0.00 61 1015.1
20220628121531 57 198 0.0 6.1 0.00 0.00 0.00 64 1015.0
20220628120030 57 134 0.9 3.5 0.00 0.00 0.00 66 1015.0
20220628114531 56 219 0.0 0.0 0.00 0.00 0.00 66 1015.3
20220628113028 57 174 0.0 0.0 0.00 0.00 0.00 65 1015.2
20220628111533 57 210 0.0 0.0 0.00 0.00 0.00 64 1015.3
20220628110026 58 162 0.0 0.0 0.00 0.00 0.00 62 1015.2
20220628104531 58 215 0.0 3.5 0.00 0.00 0.00 60 1015.3
20220628103024 58 211 0.0 3.5 0.00 0.00 0.00 61 1015.1
20220628101522 58 210 0.0 3.5 0.00 0.00 0.00 62 1015.3
20220628100021 58 114 0.0 1.7 0.00 0.00 0.00 63 1015.5
20220628094520 58 121 0.0 0.0 0.00 0.00 0.00 65 1015.6
20220628093019 57 124 0.0 0.0 0.00 0.00 0.00 67 1015.9
20220628091516 56 124 0.0 0.0 0.00 0.00 0.00 70 1016.0
20220628090013 57 89 0.0 0.0 0.00 0.00 0.00 68 1016.1
20220628084511 57 89 0.0 0.0 0.00 0.00 0.00 67 1016.2
20220628083010 58 84 0.0 0.0 0.00 0.00 0.00 67 1016.2
20220628081508 58 84 0.0 0.0 0.00 0.00 0.00 65 1016.2
20220628080005 59 84 0.0 0.0 0.00 0.00 0.00 66 1016.3
20220628074502 59 84 0.0 0.0 0.00 0.00 0.00 64 1016.4
20220628073058 61 209 0.0 0.0 0.00 0.00 0.00 61 1016.6
20220628071601 62 209 0.0 0.0 0.00 0.00 0.00 57 1016.8
20220628070058 63 179 0.0 0.9 0.00 0.00 0.00 57 1016.6
20220628064552 63 236 0.0 1.7 0.00 0.00 0.00 56 1016.9
20220628063053 63 215 0.0 0.9 0.00 0.00 0.00 56 1017.1
20220628061552 63 112 0.0 0.0 0.00 0.00 0.00 56 1017.3
20220628060048 63 41 0.0 0.0 0.00 0.00 0.00 55 1017.6
20220628054545 64 287 0.0 0.9 0.00 0.00 0.00 54 1017.8
20220628053046 65 335 0.0 0.0 0.00 0.00 0.00 52 1017.7
20220628051545 66 335 0.0 0.0 0.00 0.00 0.00 50 1018.0
20220628050045 67 335 0.0 0.0 0.00 0.00 0.00 47 1018.1
20220628044546 68 291 0.0 5.2 0.00 0.00 0.00 46 1018.0
20220628043044 68 296 0.0 4.3 0.00 0.00 0.00 44 1017.7